Location: Unspecified
(0.0000°N, 0.0000°E)
Time: 14:44:15
(UTC+00:00)

Altair - Pass Details

Date: 28 October 2021
Orbit: 1502 x 1682 km, 47.2° (Epoch: 26 November)

Event Time Altitude Azimuth Distance (km) Brightness Sun altitude
Rises 22:18:39 0° 221° (SW) 4,684 10.4 -65.0°
Enters shadow 22:20:53 - 221° (SW) 3,953 9.9 -65.5°
Reaches altitude 10° 22:21:43 10° 221° (SW) 3,683 - -65.6°
Maximum altitude 22:30:58 86° 308° (NW) 1,507 - -67.5°
Drops below altitude 10° 22:40:09 10° 38° (NE) 3,649 - -69.3°
Sets 22:43:10 0° 39° (NE) 4,638 - -69.9°
